Starlink 31967

operational
NORAD ID: 60021 Int'l Des: 2024-111 Owner: SPXS Country: US Constellation: starlink
LEOCIRCULAR

About Starlink 31967

Description loading...

Live Position

Loading 3D Globe...

Upcoming Passes

Altitude History

Altitude vs Time

uPlot chart will show altitude changes over time

Two-Line Element Set

1 60021U 24111F 25305.32080048 .00000010 00000-0 12446-4 0 9990
2 60021 53.1615 311.6017 0001195 97.7771 262.3365 15.30199865 79397
Epoch: Nov 1, 2025 • Age: 17 hours

Current Status

Altitude 475.3 km
Velocity 7.63 km/s
Sub-Earth Point 15.42°N, 96.85°W
Launch Date Jun 8, 2024
Age 1.3 years
Type internet

Technical Details

Classification Payload
Mass 730.00 kg
Dry Mass 700.00 kg
Total Mass 730.00 kg
Length 0.30 m
Diameter 4.10 m
Span 29.00 m
Shape Box + pan
Manufacturer SPXS
Bus Type Starlink V2M
Phase Status In Orbit
Owner/State SPXS/US

Large Constellations

Loading constellations...